EW5380 Weather Reports


time (UTC)temp
C
wind
direction
speed
KPH
gust
KPH
rain 1hr
cm
rain 24hr
cm
rain mn
cm
humidity
%
barometer
mb
20260503184831 15 90 3.2 11.3 0.00 0.00 0.00 39 1018.1
20260503184327 15 331 3.2 12.9 0.00 0.00 0.00 36 1018.5
20260503183823 15 114 1.6 12.9 0.00 0.00 0.00 37 1018.5
20260503183321 15 49 1.6 11.3 0.00 0.00 0.00 40 1018.5
20260503182818 15 173 1.6 11.3 0.00 0.00 0.00 39 1018.5
20260503182317 14 281 0.0 11.3 0.00 0.00 0.00 42 1018.5
20260503181814 14 308 1.6 11.3 0.00 0.00 0.00 37 1018.5
20260503181311 14 275 3.2 11.3 0.00 0.00 0.00 39 1018.5
20260503180807 14 313 3.2 11.3 0.00 0.00 0.00 40 1018.8
20260503180306 13 246 3.2 17.7 0.00 0.00 0.00 38 1018.5
20260503175801 13 308 3.2 17.7 0.00 0.00 0.00 38 1018.8
20260503175300 13 277 1.6 9.7 0.00 0.00 0.00 41 1018.8
20260503174755 13 276 3.2 9.7 0.00 0.00 0.00 42 1018.8
20260503174253 13 239 3.2 9.7 0.00 0.00 0.00 44 1018.8
20260503173748 13 267 1.6 9.7 0.00 0.00 0.00 44 1018.8
20260503173244 13 321 3.2 14.5 0.00 0.00 0.00 43 1019.2
20260503172741 12 162 3.2 14.5 0.00 0.00 0.00 43 1019.2
20260503172238 12 302 1.6 12.9 0.00 0.00 0.00 43 1019.2
20260503171735 12 265 3.2 11.3 0.00 0.00 0.00 45 1019.2
20260503171232 12 298 3.2 11.3 0.00 0.00 0.00 44 1019.2
20260503170729 12 138 3.2 11.3 0.00 0.00 0.00 45 1019.6
20260503170226 12 26 3.2 8.0 0.00 0.00 0.00 45 1019.6
20260503160147 11 310 1.6 8.0 0.00 0.00 0.00 47 1020.3
20260503150618 10 277 1.6 11.3 0.00 0.00 0.00 54 1020.7
20260503150114 10 124 3.2 11.3 0.00 0.00 0.00 54 1020.3
20260503131007 7 243 1.6 8.0 0.00 0.00 0.00 70 1020.3
20260503130505 7 243 1.6 8.0 0.00 0.00 0.00 70 1020.3
20260503110350 2 146 0.0 8.0 0.00 0.00 0.00 85 1019.2
20260503090235 4 274 1.6 6.4 0.00 0.00 0.00 78 1017.8
20260503081203 5 261 3.2 11.3 0.00 0.00 0.00 76 1017.3
20260503080658 5 282 1.6 8.0 0.00 0.00 0.00 76 1017.0
20260503080155 5 275 3.2 11.3 0.00 0.00 0.00 75 1017.0
20260503072632 5 276 0.0 3.2 0.00 0.00 0.00 76 1016.7
20260503072129 5 276 0.0 1.6 0.00 0.00 0.00 76 1016.7
20260503071626 5 276 0.0 8.0 0.00 0.00 0.00 76 1016.7
20260503071122 5 276 0.0 8.0 0.00 0.00 0.00 76 1016.7
20260503070620 5 119 0.0 6.4 0.00 0.00 0.00 75 1016.7
20260503070118 5 119 0.0 6.4 0.00 0.00 0.00 75 1016.7
20260503055038 5 153 0.0 6.4 0.00 0.00 0.00 73 1016.7
20260503054534 5 148 0.0 3.2 0.00 0.00 0.00 73 1016.7
20260503054031 5 146 0.0 3.2 0.00 0.00 0.00 72 1016.7
20260503053529 5 146 0.0 6.4 0.00 0.00 0.00 73 1016.7
20260503053027 5 146 0.0 6.4 0.00 0.00 0.00 72 1016.7
20260503052523 5 146 0.0 3.2 0.00 0.00 0.00 72 1016.7
20260503052020 5 146 1.6 6.4 0.00 0.00 0.00 71 1016.7
20260503051515 5 151 1.6 6.4 0.00 0.00 0.00 72 1016.7
20260503051013 5 151 1.6 8.0 0.00 0.00 0.00 72 1016.7
20260503050509 5 154 1.6 8.0 0.00 0.00 0.00 72 1016.7
20260503050007 6 142 1.6 6.4 0.00 0.00 0.00 72 1016.7
20260503045504 6 124 1.6 6.4 0.00 0.00 0.00 71 1016.7
20260503045001 6 144 1.6 6.4 0.00 0.00 0.00 71 1016.7
20260503044457 6 146 1.6 6.4 0.00 0.00 0.00 72 1016.7
20260503043955 6 157 1.6 8.0 0.00 0.00 0.00 73 1016.3
20260503043450 6 157 1.6 8.0 0.00 0.00 0.00 73 1016.3
20260503042947 6 138 1.6 8.0 0.00 0.00 0.00 72 1016.3
20260503042444 6 147 1.6 8.0 0.00 0.00 0.00 72 1016.3
20260503041941 6 152 1.6 8.0 0.00 0.00 0.00 71 1016.3
20260503041437 6 139 3.2 12.9 0.00 0.00 0.00 70 1016.3
20260503040935 6 147 1.6 12.9 0.00 0.00 0.00 70 1016.3
20260503040432 6 141 1.6 8.0 0.00 0.00 0.00 68 1015.9
20260503035929 6 147 1.6 8.0 0.00 0.00 0.00 69 1015.9
20260503035426 6 151 1.6 8.0 0.00 0.00 0.00 67 1015.9
20260503034924 7 145 1.6 6.4 0.00 0.00 0.00 67 1015.9
20260503034421 7 147 1.6 6.4 0.00 0.00 0.00 67 1015.9
20260503033918 7 153 1.6 6.4 0.00 0.00 0.00 64 1015.6
20260503033415 7 137 1.6 12.9 0.00 0.00 0.00 63 1015.6
20260503032913 7 144 1.6 12.9 0.00 0.00 0.00 62 1015.6
20260503032412 7 267 0.0 6.4 0.00 0.00 0.00 61 1015.6
20260503031909 7 288 0.0 9.7 0.00 0.00 0.00 61 1015.6
20260503031407 7 261 0.0 9.7 0.00 0.00 0.00 61 1015.6
20260503030903 7 277 0.0 6.4 0.00 0.00 0.00 61 1015.6
20260503030359 7 142 0.0 6.4 0.00 0.00 0.00 61 1015.6
20260503025856 7 270 0.0 3.2 0.00 0.00 0.00 61 1015.6
20260503025353 7 132 0.0 6.4 0.00 0.00 0.00 61 1015.6
20260503024850 8 142 0.0 6.4 0.00 0.00 0.00 60 1015.6
20260503024347 8 103 0.0 6.4 0.00 0.00 0.00 60 1015.6
20260503023843 8 65 0.0 6.4 0.00 0.00 0.00 59 1015.6
20260503023340 8 261 1.6 9.7 0.00 0.00 0.00 58 1015.6
20260503022837 8 154 1.6 9.7 0.00 0.00 0.00 58 1015.6
20260503022332 8 277 0.0 8.0 0.00 0.00 0.00 57 1015.6
20260503021829 8 244 0.0 8.0 0.00 0.00 0.00 56 1015.2
20260503021325 8 267 1.6 11.3 0.00 0.00 0.00 56 1015.2
20260503020822 8 346 1.6 11.3 0.00 0.00 0.00 55 1015.2
20260503020321 8 317 1.6 11.3 0.00 0.00 0.00 55 1015.2
20260503015816 9 242 3.2 17.7 0.00 0.00 0.00 55 1015.2
20260503015314 9 248 1.6 16.1 0.00 0.00 0.00 54 1015.2
20260503014809 9 290 1.6 12.9 0.00 0.00 0.00 55 1015.2
20260503014307 9 273 1.6 12.9 0.00 0.00 0.00 54 1014.9
20260503013804 9 105 1.6 14.5 0.00 0.00 0.00 54 1014.9
20260503013302 9 266 3.2 14.5 0.00 0.00 0.00 53 1014.9
20260503012758 9 300 4.8 14.5 0.00 0.00 0.00 53 1014.9
20260503012255 9 137 3.2 14.5 0.00 0.00 0.00 53 1014.9
20260503011752 9 273 1.6 11.3 0.00 0.00 0.00 54 1014.4
20260503011249 10 279 1.6 12.9 0.00 0.00 0.00 53 1014.4
20260503010745 10 279 1.6 12.9 0.00 0.00 0.00 53 1014.4
20260503010242 10 314 3.2 12.9 0.00 0.00 0.00 53 1014.4
20260503005740 10 203 3.2 12.9 0.00 0.00 0.00 52 1014.4
20260503005237 10 291 4.8 19.3 0.00 0.00 0.00 52 1014.1
20260503004732 10 161 4.8 19.3 0.00 0.00 0.00 51 1014.1
20260503004231 10 277 6.4 22.5 0.00 0.00 0.00 50 1014.1
20260503003728 10 274 6.4 22.5 0.00 0.00 0.00 50 1014.1
20260503003225 10 252 6.4 20.9 0.00 0.00 0.00 50 1014.1
20260503002722 10 304 4.8 20.9 0.00 0.00 0.00 50 1014.1
20260503002219 10 299 3.2 20.9 0.00 0.00 0.00 49 1013.8
20260503001714 10 310 3.2 14.5 0.00 0.00 0.00 49 1013.8
20260503001211 10 287 4.8 17.7 0.00 0.00 0.00 48 1013.8
20260503000709 11 279 4.8 17.7 0.00 0.00 0.00 48 1013.8
20260503000206 11 302 4.8 17.7 0.00 0.00 0.00 48 1013.4
20260502235703 11 80 3.2 17.7 0.00 0.00 0.00 47 1013.4
20260502235201 11 271 3.2 12.9 0.00 0.00 0.00 47 1013.4
20260502234657 11 270 4.8 20.9 0.00 0.00 0.00 46 1013.4
20260502234149 11 294 4.8 20.9 0.00 0.00 0.00 45 1013.0
20260502233645 11 267 3.2 24.1 0.00 0.00 0.00 45 1013.0
20260502233142 12 215 4.8 24.1 0.00 0.00 0.00 45 1013.0
20260502232638 12 231 6.4 33.8 0.00 0.00 0.00 44 1013.4
20260502232135 12 308 6.4 33.8 0.00 0.00 0.00 43 1013.0
20260502231631 12 294 4.8 22.5 0.00 0.00 0.00 44 1013.0
20260502231129 12 277 4.8 22.5 0.00 0.00 0.00 44 1013.0
20260502230627 12 274 4.8 24.1 0.00 0.00 0.00 43 1013.0
20260502230120 12 311 3.2 24.1 0.00 0.00 0.00 43 1013.0
20260502225615 12 134 4.8 16.1 0.00 0.00 0.00 44 1013.0
20260502225112 12 234 4.8 16.1 0.00 0.00 0.00 42 1013.0
20260502224608 12 279 4.8 11.3 0.00 0.00 0.00 43 1013.0
20260502224105 12 269 3.2 17.7 0.00 0.00 0.00 44 1013.0
20260502223603 12 121 3.2 17.7 0.00 0.00 0.00 46 1013.0
20260502223101 12 182 4.8 20.9 0.00 0.00 0.00 43 1013.0
20260502222558 12 309 6.4 20.9 0.00 0.00 0.00 44 1013.0
20260502222054 12 355 6.4 19.3 0.00 0.00 0.00 43 1013.0
20260502221550 12 311 6.4 24.1 0.00 0.00 0.00 44 1013.0
20260502221048 12 284 6.4 24.1 0.00 0.00 0.00 44 1012.6
20260502220543 12 325 4.8 20.9 0.00 0.00 0.00 44 1013.0
20260502220040 12 270 4.8 32.2 0.00 0.00 0.00 45 1012.6
20260502215537 12 284 8.0 32.2 0.00 0.00 0.00 42 1012.6
20260502215034 12 304 8.0 24.1 0.00 0.00 0.00 42 1012.6
20260502214531 12 282 6.4 24.1 0.00 0.00 0.00 44 1012.6
20260502214029 13 286 4.8 30.6 0.00 0.00 0.00 45 1012.6
20260502213525 13 296 8.0 30.6 0.00 0.00 0.00 41 1012.3
20260502213023 13 22 9.7 33.8 0.00 0.00 0.00 41 1012.3
20260502212522 13 289 8.0 33.8 0.00 0.00 0.00 42 1012.3
20260502212019 13 145 9.7 20.9 0.00 0.00 0.00 42 1012.3
20260502211515 13 296 9.7 22.5 0.00 0.00 0.00 41 1012.3
20260502211012 13 328 6.4 22.5 0.00 0.00 0.00 43 1012.3
20260502210509 13 294 6.4 24.1 0.00 0.00 0.00 42 1012.0
20260502210006 13 300 6.4 24.1 0.00 0.00 0.00 42 1012.0
20260502205502 13 296 6.4 24.1 0.00 0.00 0.00 42 1012.0
20260502204959 13 311 6.4 24.1 0.00 0.00 0.00 40 1012.0
20260502204456 14 269 4.8 12.9 0.00 0.00 0.00 41 1012.0
20260502203954 14 298 4.8 14.5 0.00 0.00 0.00 41 1012.0
20260502203451 14 294 3.2 14.5 0.00 0.00 0.00 43 1012.0
20260502202947 14 309 4.8 24.1 0.00 0.00 0.00 44 1012.0
20260502202444 14 279 4.8 24.1 0.00 0.00 0.00 40 1012.0
20260502201942 13 319 3.2 12.9 0.00 0.00 0.00 41 1012.0
20260502201438 13 342 6.4 12.9 0.00 0.00 0.00 40 1012.0
20260502200935 13 269 4.8 22.5 0.00 0.00 0.00 43 1012.0
20260502200430 13 319 4.8 16.1 0.00 0.00 0.00 43 1012.0
20260502195928 13 267 4.8 14.5 0.00 0.00 0.00 39 1012.0
20260502195425 14 278 4.8 20.9 0.00 0.00 0.00 45 1012.0
20260502194922 14 5 4.8 16.1 0.00 0.00 0.00 41 1012.0
20260502194419 13 300 4.8 16.1 0.00 0.00 0.00 42 1012.0
20260502193914 13 123 4.8 16.1 0.00 0.00 0.00 45 1012.0
20260502193412 13 269 3.2 12.9 0.00 0.00 0.00 41 1012.0
20260502192907 13 304 3.2 12.9 0.00 0.00 0.00 42 1012.3
20260502192404 13 0 4.8 17.7 0.00 0.00 0.00 43 1012.3
20260502191902 13 311 4.8 17.7 0.00 0.00 0.00 44 1012.6
20260502191359 12 309 3.2 16.1 0.00 0.00 0.00 43 1012.6
20260502190856 12 306 4.8 12.9 0.00 0.00 0.00 44 1012.6
20260502190354 12 319 4.8 16.1 0.00 0.00 0.00 46 1012.6
20260502185849 13 336 3.2 16.1 0.00 0.00 0.00 41 1012.6
20260502185345 13 263 1.6 8.0 0.00 0.00 0.00 45 1012.6